    Orbital elements:
    2020 FX4                                            PHA, Earth MOID = 0.0158 AU
    Epoch 2020 May 31.0 TT = JDT 2459000.5                  Veres
    M  22.99133              (2000.0)            P               Q
    n   0.25920667     Peri.  356.42733     -0.88240654     -0.46506129
    a   2.4361569      Node   155.46002     +0.43580494     -0.86499839
    e   0.6004759      Incl.    9.87815     +0.17729283     -0.18840327
    P   3.80           H   21.8           G   0.15           U   3
    Residuals in seconds of arc
    191102 F51  0.1+  0.1-    200324 246  0.2-  0.0     200324 K61  0.8+  0.3+
    191102 F51  0.2+  0.1-    200324 246  0.3-  0.6+    200324 J95  0.0   0.2-
    191102 F51  0.1-  0.3+    200324 246  0.3-  0.6+    200324 J95  0.4-  0.0
    191105 F52  0.3-  0.6-    200324 246  0.2-  0.4+    200324 J95  0.1-  0.0
    191126 F51  0.1+  0.0     200324 033  0.3-  0.2-    200325 033  0.3-  0.0
    191203 F52  0.4+  0.5+    200324 033  0.3-  0.2-    200325 033  0.4-  0.1-
    191230 F52  0.1+  0.1-    200324 204  0.4-  0.4-    200325 033  0.2+  0.1+
    200120 F51  0.0   0.0     200324 033  0.3-  0.3-    200325 I52  1.3-  1.2-
    200120 F51  0.0   0.1-    200324 L01  0.3+  0.9+    200325 I52  0.1-  0.3+
    200120 F51  0.0   0.2-    200324 K87  0.2-  0.5-    200325 I52  0.3-  0.0
    200120 F51  0.1-  0.1+    200324 L01  0.2+  0.2+    200325 858  0.0   0.0
    200122 F52  0.2-  0.1+    200324 L01  0.4+  0.1+    200325 H21  0.0   0.1+
    200122 F52  0.1-  0.2+    200324 L01  0.0   0.2+    200325 H21  0.1-  0.2+
    200324 F52  0.1+  0.2+    200324 204  0.3+  0.3-    200325 858  0.0   0.3+
    200324 F52  0.0   0.0     200324 K87  0.0   0.5+    200325 H21  0.2-  0.1+
    200324 F52  0.0   0.2+    200324 204  0.3+  0.1-    200325 858  0.3+  0.2+
    200324 F52  0.0   0.4+    200324 K87  0.0   0.4+    200325 113  0.0   0.2-
    200324 246  0.0   0.9+    200324 I93  0.1+  0.6+    200325 113  0.8+  0.2+
    200324 246  0.1+  0.2+    200324 I93  0.2-  0.1+    200325 113  0.2-  0.1+
    200324 246  0.9-  0.4+    200324 I93  0.3+  0.0     200325 113  0.3+  0.8+
    200324 246  0.1-  0.0     200324 K61  0.8+  0.2+    200325 J95  0.2-  0.3-
    200324 246  0.3-  0.1+    200324 K61  1.0+  0.4+    200325 J95  0.3+  0.5-
    200324 246  0.0   0.3-    200324 K61  0.8+  0.1+    200325 J95  0.3+  0.3-
    
    Ephemeris:
    2020 FX4                 a,e,i = 2.44, 0.60, 10                  q = 0.9733
    Date    TT    R. A. (2000) Decl.     Delta      r    Elong.  Phase     V
    2020 02 24    03 41 46.0 +08 58 27   0.2303  0.9797    80.9    85.7    21.6
    ...
    2020 03 10    04 26 52.2 +27 10 53   0.1582  0.9774    79.8    91.1    21.0
    ...
    2020 03 18    05 21 42.0 +43 14 44   0.1307  0.9932    85.3    87.2    20.4
    ...
    2020 03 24    06 48 15.7 +56 17 46   0.1219  1.0122    93.7    79.4    20.0
    2020 03 25    07 09 17.1 +58 04 07   0.1217  1.0159    95.4    77.8    20.0
    2020 03 26    07 32 24.6 +59 36 03   0.1219  1.0198    97.1    76.1    19.9
    ...
    2020 04 01    10 11 26.4 +61 57 49   0.1309  1.0462   107.5    65.6    19.8
    ...
    2020 04 09    12 25 58.3 +52 36 44   0.1605  1.0886   119.0    53.5    20.0
    ...
    2020 04 24    13 42 28.5 +35 11 24   0.2486  1.1855   131.6    39.4    20.7
    
    A. U. Tomatic                (C) Copyright 2020 MPC           M.P.E.C. 2020-F137
    


    Read MPEC 2020-F136 Read MPEC 2020-F138


    MPEC number:

    Enter an MPEC number in one of the following forms:

    • 1997-B01 (the full form)
    • J97B01 (the packed version of the full form)
    • B01 (the abbreviated form)